Regional Weather Roundup
Issued by NWS

Home | Current Version | Previous Version | Graphics & Text | Print | Product List | Glossary On
Versions: 1 2 3 4 5 6 7 8 9 10 11 12 13 14 15 16 17 18 19 20 21 22 23 24 25 26 27 28 29 30 31 32 33 34 35 36 37 38 39 40 41 42 43 44 45 46 47 48 49 50
000
ASUS43 KIND 302359
RWRIN

WEATHER ROUNDUP FOR INDIANA
NATIONAL WEATHER SERVICE INDIANAPOLIS IN
800 PM EDT SAT JUL 30 2016

NOTE: "FAIR" INDICATES FEW OR NO CLOUDS BELOW 12,000 FEET WITH NO
SIGNIFICANT WEATHER AND/OR OBSTRUCTIONS TO VISIBILITY.

* - STATION DOES NOT REPORT WEATHER SUCH AS PRECIPITATION OR FOG.

+ - STATION NOT QUALITY CONTROLLED BY THE NATIONAL WEATHER SERVICE.
    USE DATA WITH CAUTION...ESPECIALLY DEWPOINT AND RELATIVE
    HUMIDITY OBSERVATIONS.

INZ001>003-010>013-019-020-310100-
NORTHWEST INDIANA

CITY           SKY/WX    TMP DP  RH WIND       PRES   REMARKS
GARY /AIRPORT/ PTSUNNY   73  68  83 N12       29.98S
KNOX *+        CLOUDY    73  61  64 N9        29.95S
MONTICELLO +   MOSUNNY   76  66  71 W3        29.93F
6HR MIN TEMP:  76; 6HR MAX TEMP:  81;


$$

LMZ046-743>745-310100-
SOUTHERN LAKE MICHIGAN

STATION/POSITION TIME  TEMP    WIND        PRES    WAVE
                       AIR SEA DIR/SP/G            HT
                 (UTC) (F)     (DEG/KT/KT) (MB)    (FT)
BURNS HARBOR     2300   70      20/ 11/ 13 1015.2F
MICHIGAN CITY    2300   70     360/ 13/ 14   N/A
5NW MICH CITY    2300   72 73   10/ 10/ 14   N/A     3

$$

INZ004-005-014>016-021>024-310100-
NORTH CENTRAL INDIANA

CITY           SKY/WX    TMP DP  RH WIND       PRES   REMARKS
GOSHEN         PTSUNNY   78  66  66 E6        29.95R
6HR MIN TEMP:  75; 6HR MAX TEMP:  80;

SOUTH BEND     PTSUNNY   74  68  81 N9        29.96R
6HR MIN TEMP:  74; 6HR MAX TEMP:  81; 6HR PCP: TRACE;

WARSAW +       CLOUDY    77  68  73 N3        29.95R

$$

INZ006>009-017-018-025>027-310100-
NORTHEAST INDIANA

CITY           SKY/WX    TMP DP  RH WIND       PRES   REMARKS
ANGOLA *+        N/A     75  70  83 N5        29.95F
FORT WAYNE     PTCLDY    77  69  76 NW3       29.94S
6HR MIN TEMP:  77; 6HR MAX TEMP:  82; 6HR PCP: TRACE;


$$

INZ028-029-035-036-043>045-051>053-310100-
WEST CENTRAL INDIANA

CITY           SKY/WX    TMP DP  RH WIND       PRES   REMARKS
CRAWFORDSVL +  MOSUNNY   77  66  69 SW6       29.95S
6HR MIN TEMP:  77; 6HR MAX TEMP:  81;

LAFAYETTE      MOSUNNY   79  68  69 W6        29.93S
6HR MIN TEMP:  73; 6HR MAX TEMP:  83; 6HR PCP:  0.12;

TERRE HAUTE    SUNNY     81  64  56 W8        29.95S
6HR MIN TEMP:  81; 6HR MAX TEMP:  85;


$$

INZ030>032-037>040-046>048-054>057-064-065-310100-
CENTRAL INDIANA

CITY           SKY/WX    TMP DP  RH WIND       PRES   REMARKS
COLUMBUS       PTCLDY    81  70  69 W6        29.95S
INDIANAPOLIS   PTCLDY    81  64  56 W10       29.95S
6HR MIN TEMP:  81; 6HR MAX TEMP:  86;

-EAGLE CREEK   PTCLDY    82  63  52 W9        29.94S
6HR MIN TEMP:  82; 6HR MAX TEMP:  86;

KOKOMO *+      SUNNY     81  64  57 NW5       29.94S
6HR MIN TEMP:  79; 6HR MAX TEMP:  84;

SHELBYVILLE    CLEAR     82  66  58 SW7       29.94S
6HR MIN TEMP:  82; 6HR MAX TEMP:  86;

ZIONSVILLE +   SUNNY     77  66  68 W3        29.96S
6HR MIN TEMP:  77; 6HR MAX TEMP:  82;


$$

INZ033-034-041-042-049-050-058-059-310100-
EAST CENTRAL INDIANA

CITY           SKY/WX    TMP DP  RH WIND       PRES   REMARKS
MUNCIE         CLEAR     81  66  60 W9        29.94S
6HR MIN TEMP:  81; 6HR MAX TEMP:  85;


$$

INZ060-061-067>069-081>083-085>088-310100-
SOUTHWEST INDIANA

CITY           SKY/WX    TMP DP  RH WIND       PRES   REMARKS
EVANSVILLE     SUNNY     81  69  67 NW5       29.95S
6HR MIN TEMP:  81; 6HR MAX TEMP:  86;

HUNTINGBURG *+ MOSUNNY   82  70  65 NW3       29.95S
6HR MIN TEMP:  75; 6HR MAX TEMP:  84;

WASHINGTON +   SUNNY     81  70  69 MISG      29.95S
6HR MIN TEMP:  81; 6HR MAX TEMP:  84;


$$

INZ062-063-066-070>080-084-089>092-310100-
SOUTH CENTRAL AND SOUTHEAST INDIANA

CITY           SKY/WX    TMP DP  RH WIND       PRES   REMARKS
BLOOMINGTON    SUNNY     78  67  68 W3        29.96S
6HR MIN TEMP:  78; 6HR MAX TEMP:  83;

MADISON *+     CLEAR     79  68  69 W3        29.98S
SEYMOUR +      CLEAR     84  66  54 W7        29.95S

$$




USA.gov is the U.S. government's official web portal to all federal, state and local government web resources and services.